Location: *
(31.2983°S, 151.4094°E)
Time: 19:11:14
(UTC+00:00)

SMAP - Pass Details

Date: 25 August 2019
Orbit: 681 x 683 km, 98.1° (Epoch: 17 September)

Event Time Altitude Azimuth Distance (km) Brightness Sun altitude
Rises 19:23:30 0° 16° (NNE) 3,028 6.7 -12.5°
Reaches altitude 10° 19:25:43 10° 17° (NNE) 2,121 5.9 -12.0°
Maximum altitude 19:30:21 81° 103° (ESE) 700 3.2 -11.0°
Drops below altitude 10° 19:35:04 10° 190° (S) 2,151 5.5 -10.0°
Sets 19:37:20 0° 190° (S) 3,074 6.3 -9.6°
